| time (UTC) | temp F | wind direction | speed MPH | gust MPH | rain 1hr in | rain 24hr in | rain mn in | humidity % | barometer mb |
| 20260906234104 | 72 | 150 | 0.0 | 2.0 | 0.00 | 0.00 | 0.00 | 93 | 1015.7 |
| 20260906233600 | 71 | 203 | 0.0 | 2.0 | 0.00 | 0.00 | 0.00 | 93 | 1016.0 |
| 20260906233100 | 71 | 226 | 0.0 | 1.0 | 0.00 | 0.00 | 0.00 | 93 | 1016.0 |
| 20260906232559 | 71 | 176 | 0.0 | 1.0 | 0.00 | 0.00 | 0.00 | 93 | 1016.0 |
| 20260906232100 | 71 | 263 | 0.0 | 1.0 | 0.00 | 0.00 | 0.00 | 92 | 1016.1 |
| 20260906231601 | 71 | 115 | 0.0 | 2.0 | 0.00 | 0.00 | 0.00 | 92 | 1016.2 |
| 20260906231100 | 71 | 90 | 0.0 | 2.0 | 0.00 | 0.00 | 0.00 | 92 | 1016.2 |
| 20260906230600 | 72 | 73 | 0.0 | 2.0 | 0.00 | 0.00 | 0.00 | 92 | 1016.1 |
| 20260906225559 | 72 | 120 | 0.0 | 3.0 | 0.00 | 0.00 | 0.00 | 91 | 1015.8 |
| 20260906225059 | 72 | 198 | 0.0 | 2.0 | 0.00 | 0.00 | 0.00 | 91 | 1015.7 |
| 20260906224558 | 72 | 175 | 0.0 | 1.0 | 0.00 | 0.00 | 0.00 | 91 | 1015.7 |
| 20260906224058 | 72 | 249 | 0.0 | 2.0 | 0.00 | 0.00 | 0.00 | 91 | 1015.9 |
| 20260906223558 | 72 | 259 | 0.0 | 2.0 | 0.00 | 0.00 | 0.00 | 90 | 1016.0 |
| 20260906223058 | 72 | 151 | 0.0 | 0.0 | 0.00 | 0.00 | 0.00 | 90 | 1016.2 |
| 20260906222557 | 72 | 131 | 0.0 | 4.0 | 0.00 | 0.00 | 0.00 | 90 | 1016.2 |
| 20260906222059 | 72 | 152 | 0.0 | 4.0 | 0.00 | 0.00 | 0.00 | 90 | 1016.1 |
| 20260906221559 | 72 | 247 | 0.0 | 4.0 | 0.00 | 0.00 | 0.00 | 89 | 1016.1 |
| 20260906221057 | 73 | 218 | 0.0 | 2.0 | 0.00 | 0.00 | 0.00 | 89 | 1016.2 |
| 20260906220559 | 73 | 124 | 0.0 | 2.0 | 0.00 | 0.00 | 0.00 | 89 | 1016.4 |
| 20260906220057 | 73 | 85 | 0.0 | 1.0 | 0.00 | 0.00 | 0.00 | 89 | 1016.4 |
| 20260906215559 | 73 | 87 | 0.0 | 1.0 | 0.00 | 0.00 | 0.00 | 89 | 1016.4 |
| 20260906215057 | 73 | 152 | 0.0 | 2.0 | 0.00 | 0.00 | 0.00 | 89 | 1016.4 |
| 20260906214557 | 73 | 77 | 0.0 | 2.0 | 0.00 | 0.00 | 0.00 | 89 | 1016.5 |
| 20260906214057 | 73 | 193 | 0.0 | 2.0 | 0.00 | 0.00 | 0.00 | 89 | 1016.6 |
| 20260906213556 | 73 | 135 | 0.0 | 2.0 | 0.00 | 0.00 | 0.00 | 89 | 1016.7 |
| 20260906213059 | 73 | 84 | 0.0 | 2.0 | 0.00 | 0.00 | 0.00 | 88 | 1016.6 |
| 20260906212556 | 73 | 187 | 0.0 | 4.0 | 0.00 | 0.00 | 0.00 | 88 | 1016.6 |
| 20260906212058 | 73 | 152 | 0.0 | 4.0 | 0.00 | 0.00 | 0.00 | 88 | 1016.5 |
| 20260906211559 | 73 | 101 | 0.0 | 6.0 | 0.00 | 0.00 | 0.00 | 88 | 1016.6 |
| 20260906211055 | 73 | 270 | 1.0 | 6.0 | 0.00 | 0.00 | 0.00 | 88 | 1016.7 |
| 20260906210556 | 73 | 155 | 0.0 | 7.0 | 0.00 | 0.00 | 0.00 | 88 | 1016.6 |
| 20260906210100 | 73 | 242 | 1.0 | 7.0 | 0.00 | 0.00 | 0.00 | 88 | 1016.6 |
| 20260906205555 | 73 | 240 | 1.0 | 6.0 | 0.00 | 0.00 | 0.00 | 88 | 1016.7 |
| 20260906205055 | 73 | 243 | 1.0 | 7.0 | 0.00 | 0.00 | 0.00 | 88 | 1016.9 |
| 20260906204615 | 73 | 163 | 1.0 | 7.0 | 0.00 | 0.00 | 0.00 | 88 | 1017.1 |
| 20260906204054 | 73 | 231 | 1.0 | 10.0 | 0.00 | 0.00 | 0.00 | 88 | 1017.2 |
| 20260906203553 | 73 | 257 | 3.0 | 10.0 | 0.00 | 0.00 | 0.00 | 88 | 1017.3 |
| 20260906203054 | 73 | 278 | 1.0 | 7.0 | 0.00 | 0.00 | 0.00 | 88 | 1017.3 |
| 20260906202553 | 73 | 236 | 1.0 | 7.0 | 0.00 | 0.00 | 0.00 | 87 | 1017.3 |
| 20260906202053 | 73 | 224 | 1.0 | 12.0 | 0.00 | 0.00 | 0.00 | 87 | 1017.4 |
| 20260906201604 | 74 | 264 | 3.0 | 12.0 | 0.00 | 0.00 | 0.00 | 87 | 1017.4 |
| 20260906201052 | 74 | 270 | 3.0 | 9.0 | 0.00 | 0.00 | 0.00 | 86 | 1017.4 |
| 20260906200552 | 74 | 226 | 1.0 | 5.0 | 0.00 | 0.00 | 0.00 | 86 | 1017.4 |
| 20260906200053 | 74 | 262 | 1.0 | 9.0 | 0.00 | 0.00 | 0.00 | 86 | 1017.4 |
| 20260906195552 | 74 | 252 | 3.0 | 9.0 | 0.00 | 0.00 | 0.00 | 86 | 1017.2 |
| 20260906195054 | 74 | 310 | 1.0 | 7.0 | 0.00 | 0.00 | 0.00 | 86 | 1017.0 |
| 20260906194552 | 74 | 152 | 1.0 | 6.0 | 0.00 | 0.00 | 0.00 | 86 | 1017.1 |
| 20260906194052 | 74 | 240 | 1.0 | 8.0 | 0.00 | 0.00 | 0.00 | 87 | 1017.0 |
| 20260906193556 | 74 | 191 | 2.0 | 8.0 | 0.00 | 0.00 | 0.00 | 87 | 1017.0 |
| 20260906193052 | 74 | 228 | 2.0 | 9.0 | 0.00 | 0.00 | 0.00 | 87 | 1016.8 |
| 20260906192551 | 74 | 225 | 1.0 | 9.0 | 0.00 | 0.00 | 0.00 | 86 | 1016.9 |
| 20260906192051 | 74 | 190 | 3.0 | 9.0 | 0.00 | 0.00 | 0.00 | 87 | 1016.9 |
| 20260906191551 | 74 | 155 | 4.0 | 9.0 | 0.00 | 0.00 | 0.00 | 86 | 1016.8 |
| 20260906191050 | 74 | 173 | 1.0 | 9.0 | 0.00 | 0.00 | 0.00 | 86 | 1016.8 |
| 20260906190551 | 74 | 120 | 1.0 | 5.0 | 0.00 | 0.00 | 0.00 | 87 | 1016.7 |
| 20260906190051 | 74 | 188 | 0.0 | 8.0 | 0.00 | 0.00 | 0.00 | 87 | 1016.8 |
| 20260906185550 | 74 | 210 | 0.0 | 9.0 | 0.00 | 0.00 | 0.00 | 87 | 1016.8 |
| 20260906185051 | 74 | 233 | 1.0 | 9.0 | 0.00 | 0.00 | 0.00 | 87 | 1016.8 |
| 20260906184550 | 74 | 147 | 2.0 | 6.0 | 0.00 | 0.00 | 0.00 | 86 | 1017.0 |
| 20260906184049 | 74 | 243 | 2.0 | 7.0 | 0.00 | 0.00 | 0.00 | 86 | 1017.2 |
| 20260906184016 | 74 | 186 | 1.0 | 7.0 | 0.00 | 0.00 | 0.00 | 86 | 1017.2 |
| 20260906183550 | 74 | 194 | 1.0 | 7.0 | 0.00 | 0.00 | 0.00 | 86 | 1017.2 |
| 20260906183051 | 74 | 283 | 1.0 | 7.0 | 0.00 | 0.00 | 0.00 | 86 | 1017.1 |
| 20260906182550 | 74 | 218 | 2.0 | 7.0 | 0.00 | 0.00 | 0.00 | 85 | 1017.0 |
| 20260906182050 | 75 | 215 | 1.0 | 6.0 | 0.00 | 0.00 | 0.00 | 84 | 1017.1 |
| 20260906181552 | 75 | 236 | 2.0 | 6.0 | 0.00 | 0.00 | 0.00 | 85 | 1017.0 |
| 20260906181050 | 75 | 309 | 1.0 | 5.0 | 0.00 | 0.00 | 0.00 | 85 | 1017.0 |
| 20260906180549 | 75 | 133 | 1.0 | 7.0 | 0.00 | 0.00 | 0.00 | 85 | 1017.1 |
| 20260906175549 | 75 | 300 | 2.0 | 6.0 | 0.00 | 0.00 | 0.00 | 84 | 1016.9 |
| 20260906175048 | 75 | 236 | 0.0 | 7.0 | 0.00 | 0.00 | 0.00 | 84 | 1016.7 |
| 20260906174559 | 75 | 211 | 3.0 | 7.0 | 0.00 | 0.00 | 0.00 | 83 | 1016.8 |
| 20260906174051 | 76 | 148 | 2.0 | 10.0 | 0.00 | 0.00 | 0.00 | 83 | 1016.9 |
| 20260906173551 | 76 | 186 | 1.0 | 10.0 | 0.00 | 0.00 | 0.00 | 83 | 1016.9 |
| 20260906173048 | 76 | 245 | 1.0 | 7.0 | 0.00 | 0.00 | 0.00 | 83 | 1017.0 |
| 20260906172549 | 76 | 233 | 2.0 | 8.0 | 0.00 | 0.00 | 0.00 | 81 | 1017.0 |
| 20260906172048 | 77 | 244 | 2.0 | 8.0 | 0.00 | 0.00 | 0.00 | 81 | 1016.9 |
| 20260906171548 | 77 | 319 | 3.0 | 8.0 | 0.00 | 0.00 | 0.00 | 80 | 1016.9 |
| 20260906171048 | 78 | 242 | 3.0 | 8.0 | 0.00 | 0.00 | 0.00 | 79 | 1016.7 |
| 20260906170546 | 78 | 259 | 4.0 | 9.0 | 0.00 | 0.00 | 0.00 | 79 | 1016.9 |
| 20260906170051 | 79 | 218 | 3.0 | 9.0 | 0.00 | 0.00 | 0.00 | 78 | 1017.1 |
| 20260906165546 | 79 | 256 | 4.0 | 8.0 | 0.00 | 0.00 | 0.00 | 79 | 1017.1 |
| 20260906165045 | 79 | 245 | 4.0 | 8.0 | 0.00 | 0.00 | 0.00 | 79 | 1017.1 |
| 20260906164549 | 79 | 240 | 2.0 | 6.0 | 0.00 | 0.00 | 0.00 | 80 | 1017.0 |
| 20260906164045 | 79 | 194 | 3.0 | 7.0 | 0.00 | 0.00 | 0.00 | 80 | 1017.0 |
| 20260906163545 | 79 | 240 | 2.0 | 6.0 | 0.00 | 0.00 | 0.00 | 79 | 1017.3 |
| 20260906163045 | 79 | 248 | 1.0 | 6.0 | 0.00 | 0.00 | 0.00 | 79 | 1017.1 |
| 20260906162545 | 79 | 205 | 1.0 | 6.0 | 0.00 | 0.00 | 0.00 | 80 | 1017.0 |
| 20260906162043 | 79 | 172 | 3.0 | 6.0 | 0.00 | 0.00 | 0.00 | 81 | 1017.1 |
| 20260906161546 | 78 | 205 | 2.0 | 8.0 | 0.00 | 0.00 | 0.00 | 82 | 1017.2 |
| 20260906161038 | 77 | 253 | 1.0 | 8.0 | 0.00 | 0.00 | 0.00 | 83 | 1017.2 |
| 20260906160538 | 77 | 180 | 2.0 | 8.0 | 0.00 | 0.00 | 0.00 | 84 | 1017.2 |
| 20260906160038 | 77 | 201 | 2.0 | 7.0 | 0.00 | 0.00 | 0.00 | 83 | 1017.2 |
| 20260906155537 | 77 | 259 | 2.0 | 7.0 | 0.00 | 0.00 | 0.00 | 84 | 1017.3 |
| 20260906155035 | 76 | 218 | 1.0 | 12.0 | 0.00 | 0.00 | 0.00 | 85 | 1017.3 |
| 20260906154543 | 76 | 226 | 1.0 | 12.0 | 0.00 | 0.00 | 0.00 | 84 | 1017.4 |
| 20260906154035 | 76 | 89 | 4.0 | 9.0 | 0.00 | 0.00 | 0.00 | 83 | 1017.6 |
| 20260906153534 | 76 | 346 | 2.0 | 7.0 | 0.00 | 0.00 | 0.00 | 84 | 1017.7 |
| 20260906153035 | 76 | 165 | 1.0 | 11.0 | 0.00 | 0.00 | 0.00 | 86 | 1017.6 |
| 20260906152531 | 75 | 190 | 3.0 | 11.0 | 0.00 | 0.00 | 0.00 | 86 | 1017.6 |
| 20260906152033 | 75 | 203 | 2.0 | 11.0 | 0.00 | 0.00 | 0.00 | 86 | 1017.5 |
| 20260906151531 | 75 | 194 | 5.0 | 11.0 | 0.00 | 0.00 | 0.00 | 85 | 1017.6 |
| 20260906151030 | 75 | 181 | 5.0 | 9.0 | 0.00 | 0.00 | 0.00 | 87 | 1017.7 |
| 20260906150528 | 74 | 184 | 0.0 | 11.0 | 0.00 | 0.00 | 0.00 | 89 | 1017.6 |
| 20260906150027 | 74 | 218 | 5.0 | 11.0 | 0.00 | 0.00 | 0.00 | 88 | 1017.6 |
| 20260906145539 | 73 | 16 | 5.0 | 11.0 | 0.00 | 0.00 | 0.00 | 89 | 1017.5 |
| 20260906145023 | 73 | 226 | 3.0 | 11.0 | 0.00 | 0.00 | 0.00 | 89 | 1017.6 |
| 20260906144522 | 73 | 163 | 5.0 | 11.0 | 0.00 | 0.00 | 0.00 | 90 | 1017.6 |
| 20260906144023 | 73 | 248 | 4.0 | 11.0 | 0.00 | 0.00 | 0.00 | 90 | 1017.6 |
| 20260906143519 | 72 | 136 | 3.0 | 10.0 | 0.00 | 0.00 | 0.00 | 90 | 1017.4 |
| 20260906143017 | 72 | 162 | 1.0 | 9.0 | 0.00 | 0.00 | 0.00 | 91 | 1017.4 |
| 20260906142520 | 72 | 143 | 2.0 | 8.0 | 0.00 | 0.00 | 0.00 | 91 | 1017.4 |
| 20260906142017 | 72 | 111 | 3.0 | 7.0 | 0.00 | 0.00 | 0.00 | 92 | 1017.3 |
| 20260906141516 | 72 | 108 | 2.0 | 8.0 | 0.00 | 0.00 | 0.00 | 92 | 1017.4 |
| 20260906141016 | 72 | 156 | 1.0 | 8.0 | 0.00 | 0.00 | 0.00 | 93 | 1017.5 |
| 20260906140512 | 71 | 163 | 1.0 | 8.0 | 0.00 | 0.00 | 0.00 | 94 | 1017.5 |
| 20260906140023 | 71 | 166 | 2.0 | 9.0 | 0.00 | 0.00 | 0.00 | 94 | 1017.5 |
| 20260906135511 | 70 | 62 | 3.0 | 9.0 | 0.00 | 0.00 | 0.00 | 94 | 1017.5 |
| 20260906135014 | 70 | 172 | 2.0 | 8.0 | 0.00 | 0.00 | 0.00 | 94 | 1017.4 |
| 20260906134510 | 70 | 173 | 2.0 | 8.0 | 0.00 | 0.00 | 0.00 | 95 | 1017.4 |
| 20260906134009 | 70 | 160 | 1.0 | 7.0 | 0.00 | 0.00 | 0.00 | 96 | 1017.4 |
| 20260906133508 | 69 | 101 | 2.0 | 8.0 | 0.00 | 0.00 | 0.00 | 96 | 1017.2 |
| 20260906133021 | 69 | 198 | 2.0 | 8.0 | 0.00 | 0.00 | 0.00 | 95 | 1017.2 |
| 20260906132508 | 70 | 183 | 1.0 | 6.0 | 0.00 | 0.00 | 0.00 | 96 | 1017.2 |
| 20260906132007 | 70 | 172 | 0.0 | 6.0 | 0.00 | 0.00 | 0.00 | 96 | 1017.2 |
| 20260906131508 | 69 | 152 | 1.0 | 6.0 | 0.00 | 0.00 | 0.00 | 97 | 1017.1 |
| 20260906131007 | 69 | 35 | 0.0 | 5.0 | 0.00 | 0.00 | 0.00 | 97 | 1017.1 |
| 20260906130507 | 69 | 49 | 0.0 | 4.0 | 0.00 | 0.00 | 0.00 | 98 | 1017.1 |
| 20260906130018 | 68 | 165 | 0.0 | 4.0 | 0.00 | 0.00 | 0.00 | 98 | 1017.1 |
| 20260906125506 | 68 | 218 | 0.0 | 5.0 | 0.00 | 0.00 | 0.00 | 98 | 1017.1 |
| 20260906125009 | 68 | 64 | 1.0 | 5.0 | 0.00 | 0.00 | 0.00 | 98 | 1017.1 |
| 20260906124505 | 68 | 26 | 0.0 | 4.0 | 0.00 | 0.00 | 0.00 | 99 | 1017.2 |
| 20260906124005 | 68 | 180 | 0.0 | 4.0 | 0.00 | 0.00 | 0.00 | 99 | 1017.1 |
| 20260906123505 | 67 | 170 | 0.0 | 4.0 | 0.00 | 0.00 | 0.00 | 99 | 1017.1 |
| 20260906123004 | 67 | 79 | 0.0 | 3.0 | 0.00 | 0.00 | 0.00 | 99 | 1017.2 |
| 20260906122504 | 67 | 143 | 0.0 | 3.0 | 0.00 | 0.00 | 0.00 | 99 | 1017.3 |
| 20260906122002 | 67 | 118 | 0.0 | 2.0 | 0.00 | 0.00 | 0.00 | 99 | 1017.2 |
| 20260906121503 | 66 | 247 | 0.0 | 2.0 | 0.00 | 0.00 | 0.00 | 99 | 1017.2 |
| 20260906121002 | 66 | 132 | 0.0 | 2.0 | 0.00 | 0.00 | 0.00 | 99 | 1017.2 |
| 20260906120503 | 66 | 188 | 0.0 | 2.0 | 0.00 | 0.00 | 0.00 | 99 | 1017.2 |
| 20260906120001 | 66 | 140 | 0.0 | 2.0 | 0.00 | 0.00 | 0.00 | 99 | 1017.3 |
| 20260906115502 | 66 | 94 | 0.0 | 1.0 | 0.00 | 0.00 | 0.00 | 99 | 1017.2 |
| 20260906115000 | 66 | 97 | 0.0 | 2.0 | 0.00 | 0.00 | 0.00 | 99 | 1017.2 |
| 20260906114504 | 66 | 94 | 0.0 | 2.0 | 0.00 | 0.00 | 0.00 | 99 | 1017.1 |
| 20260906114100 | 66 | 88 | 0.0 | 1.0 | 0.00 | 0.00 | 0.00 | 99 | 1017.1 |
| 20260906113600 | 67 | 96 | 0.0 | 2.0 | 0.00 | 0.00 | 0.00 | 99 | 1017.1 |
| 20260906113100 | 66 | 93 | 0.0 | 2.0 | 0.00 | 0.00 | 0.00 | 99 | 1017.1 |
| 20260906112559 | 66 | 93 | 0.0 | 1.0 | 0.00 | 0.00 | 0.00 | 99 | 1017.1 |
| 20260906112100 | 66 | 74 | 0.0 | 1.0 | 0.00 | 0.00 | 0.00 | 99 | 1017.1 |
| 20260906111616 | 66 | 50 | 0.0 | 1.0 | 0.00 | 0.00 | 0.00 | 98 | 1017.0 |
| 20260906111057 | 66 | 107 | 0.0 | 2.0 | 0.00 | 0.00 | 0.00 | 98 | 1017.0 |
| 20260906110558 | 66 | 165 | 0.0 | 2.0 | 0.00 | 0.00 | 0.00 | 98 | 1016.9 |
| 20260906110057 | 66 | 177 | 0.0 | 1.0 | 0.00 | 0.00 | 0.00 | 98 | 1016.9 |
| 20260906105556 | 66 | 23 | 0.0 | 1.0 | 0.00 | 0.00 | 0.00 | 98 | 1016.8 |
| 20260906105058 | 67 | 56 | 0.0 | 0.0 | 0.00 | 0.00 | 0.00 | 98 | 1016.8 |
| 20260906104556 | 67 | 58 | 0.0 | 1.0 | 0.00 | 0.00 | 0.00 | 98 | 1016.9 |
| 20260906104055 | 67 | 108 | 0.0 | 1.0 | 0.00 | 0.00 | 0.00 | 98 | 1016.9 |
| 20260906103554 | 67 | 85 | 0.0 | 1.0 | 0.00 | 0.00 | 0.00 | 98 | 1016.8 |
| 20260906103054 | 67 | 147 | 0.0 | 3.0 | 0.00 | 0.00 | 0.00 | 98 | 1016.7 |
| 20260906102553 | 67 | 139 | 0.0 | 3.0 | 0.00 | 0.00 | 0.00 | 98 | 1016.7 |
| 20260906102052 | 67 | 158 | 0.0 | 4.0 | 0.00 | 0.00 | 0.00 | 98 | 1016.6 |
| 20260906101552 | 67 | 222 | 0.0 | 5.0 | 0.00 | 0.00 | 0.00 | 98 | 1016.6 |
| 20260906101052 | 67 | 190 | 1.0 | 5.0 | 0.00 | 0.00 | 0.00 | 98 | 1016.5 |
| 20260906100554 | 67 | 159 | 0.0 | 5.0 | 0.00 | 0.00 | 0.00 | 98 | 1016.5 |
| 20260906100058 | 67 | 194 | 0.0 | 5.0 | 0.00 | 0.00 | 0.00 | 98 | 1016.5 |
| 20260906095550 | 67 | 205 | 1.0 | 5.0 | 0.00 | 0.00 | 0.00 | 98 | 1016.6 |
| 20260906095050 | 67 | 194 | 0.0 | 5.0 | 0.00 | 0.00 | 0.00 | 98 | 1016.5 |
| 20260906094551 | 67 | 198 | 0.0 | 3.0 | 0.00 | 0.00 | 0.00 | 98 | 1016.5 |
| 20260906094052 | 67 | 222 | 0.0 | 3.0 | 0.00 | 0.00 | 0.00 | 98 | 1016.5 |
| 20260906093550 | 67 | 73 | 0.0 | 5.0 | 0.00 | 0.00 | 0.00 | 98 | 1016.5 |
| 20260906093051 | 67 | 166 | 0.0 | 5.0 | 0.00 | 0.00 | 0.00 | 98 | 1016.3 |
| 20260906092552 | 67 | 248 | 0.0 | 3.0 | 0.00 | 0.00 | 0.00 | 97 | 1016.3 |
| 20260906092049 | 67 | 259 | 0.0 | 3.0 | 0.00 | 0.00 | 0.00 | 97 | 1016.2 |
| 20260906091549 | 67 | 210 | 0.0 | 1.0 | 0.00 | 0.00 | 0.00 | 97 | 1016.2 |
| 20260906091047 | 67 | 245 | 0.0 | 1.0 | 0.00 | 0.00 | 0.00 | 97 | 1016.2 |
| 20260906090546 | 68 | 190 | 0.0 | 1.0 | 0.00 | 0.00 | 0.00 | 97 | 1016.2 |
| 20260906090046 | 68 | 136 | 0.0 | 2.0 | 0.00 | 0.00 | 0.00 | 97 | 1016.1 |
| 20260906085551 | 68 | 48 | 0.0 | 2.0 | 0.00 | 0.00 | 0.00 | 97 | 1016.0 |
| 20260906085045 | 68 | 82 | 0.0 | 3.0 | 0.00 | 0.00 | 0.00 | 97 | 1016.0 |
| 20260906084546 | 68 | 86 | 0.0 | 3.0 | 0.00 | 0.00 | 0.00 | 97 | 1016.0 |
| 20260906084046 | 68 | 98 | 0.0 | 2.0 | 0.00 | 0.00 | 0.00 | 97 | 1016.1 |
| 20260906083545 | 68 | 81 | 0.0 | 1.0 | 0.00 | 0.00 | 0.00 | 97 | 1016.2 |
| 20260906083045 | 68 | 96 | 0.0 | 2.0 | 0.00 | 0.00 | 0.00 | 97 | 1016.2 |
| 20260906082545 | 68 | 85 | 0.0 | 2.0 | 0.00 | 0.00 | 0.00 | 97 | 1016.1 |
| 20260906082045 | 68 | 98 | 0.0 | 4.0 | 0.00 | 0.00 | 0.00 | 97 | 1016.0 |
| 20260906081545 | 68 | 100 | 1.0 | 5.0 | 0.00 | 0.00 | 0.00 | 98 | 1016.0 |
| 20260906081044 | 68 | 87 | 1.0 | 2.0 | 0.00 | 0.00 | 0.00 | 98 | 1015.9 |
| 20260906080545 | 68 | 89 | 0.0 | 2.0 | 0.00 | 0.00 | 0.00 | 96 | 1015.9 |
| 20260906080050 | 68 | 67 | 0.0 | 1.0 | 0.00 | 0.00 | 0.00 | 96 | 1015.9 |
| 20260906075547 | 68 | 68 | 0.0 | 1.0 | 0.00 | 0.00 | 0.00 | 96 | 1016.0 |
| 20260906075042 | 69 | 93 | 0.0 | 2.0 | 0.00 | 0.00 | 0.00 | 97 | 1016.0 |
| 20260906074548 | 69 | 96 | 0.0 | 2.0 | 0.00 | 0.00 | 0.00 | 97 | 1015.8 |
| 20260906074040 | 69 | 91 | 0.0 | 1.0 | 0.00 | 0.00 | 0.00 | 95 | 1015.8 |
| 20260906073541 | 69 | 93 | 0.0 | 2.0 | 0.00 | 0.00 | 0.00 | 95 | 1015.7 |
| 20260906073039 | 69 | 93 | 0.0 | 2.0 | 0.00 | 0.00 | 0.00 | 96 | 1016.0 |
| 20260906072538 | 69 | 134 | 0.0 | 1.0 | 0.00 | 0.00 | 0.00 | 96 | 1016.0 |
| 20260906072039 | 69 | 98 | 0.0 | 2.0 | 0.00 | 0.00 | 0.00 | 96 | 1016.0 |
| 20260906071536 | 69 | 113 | 0.0 | 2.0 | 0.00 | 0.00 | 0.00 | 96 | 1016.1 |
| 20260906071136 | 69 | 100 | 0.0 | 2.0 | 0.00 | 0.00 | 0.00 | 96 | 1016.2 |
| 20260906070535 | 69 | 99 | 0.0 | 2.0 | 0.00 | 0.00 | 0.00 | 95 | 1016.1 |
| 20260906070037 | 70 | 92 | 0.0 | 2.0 | 0.00 | 0.00 | 0.00 | 95 | 1016.2 |
| 20260906065535 | 70 | 100 | 0.0 | 2.0 | 0.00 | 0.00 | 0.00 | 95 | 1016.4 |
| 20260906065034 | 70 | 127 | 0.0 | 2.0 | 0.00 | 0.00 | 0.00 | 95 | 1016.5 |
| 20260906064535 | 70 | 86 | 0.0 | 2.0 | 0.00 | 0.00 | 0.00 | 95 | 1016.5 |
| 20260906064034 | 70 | 73 | 1.0 | 2.0 | 0.00 | 0.00 | 0.00 | 96 | 1016.4 |
| 20260906063537 | 70 | 85 | 0.0 | 2.0 | 0.00 | 0.00 | 0.00 | 96 | 1016.4 |
| 20260906063037 | 70 | 88 | 0.0 | 1.0 | 0.00 | 0.00 | 0.00 | 96 | 1016.5 |
| 20260906062533 | 69 | 85 | 0.0 | 2.0 | 0.00 | 0.00 | 0.00 | 96 | 1016.6 |
| 20260906062033 | 69 | 96 | 0.0 | 2.0 | 0.00 | 0.00 | 0.00 | 96 | 1016.6 |
| 20260906061534 | 69 | 138 | 0.0 | 1.0 | 0.00 | 0.00 | 0.00 | 95 | 1016.6 |
| 20260906061035 | 69 | 139 | 0.0 | 4.0 | 0.00 | 0.00 | 0.00 | 95 | 1016.5 |
| 20260906060531 | 69 | 94 | 0.0 | 4.0 | 0.00 | 0.00 | 0.00 | 95 | 1016.4 |
| 20260906060034 | 69 | 111 | 0.0 | 2.0 | 0.00 | 0.00 | 0.00 | 95 | 1016.4 |
| 20260906052552 | 70 | 223 | 1.0 | 5.0 | 0.00 | 0.00 | 0.00 | 94 | 1016.3 |
| 20260906052051 | 70 | 180 | 1.0 | 6.0 | 0.00 | 0.00 | 0.00 | 94 | 1016.3 |
| 20260906051551 | 70 | 47 | 0.0 | 2.0 | 0.00 | 0.00 | 0.00 | 94 | 1016.2 |
| 20260906051050 | 70 | 91 | 0.0 | 3.0 | 0.00 | 0.00 | 0.00 | 94 | 1016.2 |
| 20260906050549 | 70 | 81 | 0.0 | 3.0 | 0.00 | 0.00 | 0.00 | 93 | 1016.2 |
| 20260906050051 | 71 | 218 | 0.0 | 3.0 | 0.00 | 0.00 | 0.00 | 93 | 1016.3 |
| 20260906045548 | 71 | 103 | 0.0 | 2.0 | 0.00 | 0.00 | 0.00 | 93 | 1016.3 |
| 20260906045048 | 71 | 52 | 0.0 | 2.0 | 0.00 | 0.00 | 0.00 | 93 | 1016.4 |
| 20260906044548 | 71 | 96 | 0.0 | 2.0 | 0.00 | 0.00 | 0.00 | 93 | 1016.5 |
| 20260906044047 | 71 | 158 | 0.0 | 2.0 | 0.00 | 0.00 | 0.00 | 92 | 1016.4 |
| 20260906043547 | 71 | 129 | 0.0 | 4.0 | 0.00 | 0.00 | 0.00 | 92 | 1016.5 |
| 20260906043047 | 71 | 131 | 0.0 | 4.0 | 0.00 | 0.00 | 0.00 | 93 | 1016.5 |
| 20260906042546 | 71 | 83 | 0.0 | 3.0 | 0.00 | 0.00 | 0.00 | 92 | 1016.6 |
| 20260906042047 | 71 | 29 | 0.0 | 0.0 | 0.00 | 0.00 | 0.00 | 92 | 1016.7 |
| 20260906040047 | 72 | 72 | 0.0 | 1.0 | 0.00 | 0.00 | 0.00 | 91 | 1016.6 |
| 20260906035542 | 72 | 91 | 0.0 | 2.0 | 0.00 | 0.00 | 0.00 | 91 | 1016.6 |
| 20260906035043 | 72 | 121 | 0.0 | 2.0 | 0.00 | 0.00 | 0.00 | 90 | 1016.6 |
| 20260906034549 | 72 | 127 | 0.0 | 3.0 | 0.00 | 0.00 | 0.00 | 90 | 1016.7 |
| 20260906034041 | 72 | 172 | 0.0 | 3.0 | 0.00 | 0.00 | 0.00 | 89 | 1016.5 |
| 20260906033541 | 72 | 104 | 0.0 | 3.0 | 0.00 | 0.00 | 0.00 | 89 | 1016.6 |
| 20260906033041 | 73 | 86 | 0.0 | 3.0 | 0.00 | 0.00 | 0.00 | 89 | 1016.6 |
| 20260906032542 | 73 | 105 | 0.0 | 2.0 | 0.00 | 0.00 | 0.00 | 89 | 1016.6 |
| 20260906032041 | 73 | 359 | 0.0 | 3.0 | 0.00 | 0.00 | 0.00 | 88 | 1016.7 |
| 20260906031604 | 73 | 176 | 0.0 | 3.0 | 0.00 | 0.00 | 0.00 | 88 | 1016.6 |
| 20260906031044 | 73 | 68 | 0.0 | 2.0 | 0.00 | 0.00 | 0.00 | 87 | 1016.6 |
| 20260906030541 | 73 | 67 | 0.0 | 2.0 | 0.00 | 0.00 | 0.00 | 87 | 1016.6 |
| 20260906030041 | 73 | 160 | 0.0 | 2.0 | 0.00 | 0.00 | 0.00 | 86 | 1016.6 |
| 20260906025541 | 73 | 66 | 0.0 | 1.0 | 0.00 | 0.00 | 0.00 | 86 | 1016.6 |
| 20260906025040 | 73 | 67 | 0.0 | 2.0 | 0.00 | 0.00 | 0.00 | 86 | 1016.6 |
| 20260906024555 | 73 | 255 | 0.0 | 2.0 | 0.00 | 0.00 | 0.00 | 85 | 1016.6 |
| 20260906024042 | 74 | 130 | 0.0 | 2.0 | 0.00 | 0.00 | 0.00 | 85 | 1016.6 |
| 20260906023540 | 74 | 121 | 0.0 | 2.0 | 0.00 | 0.00 | 0.00 | 85 | 1016.6 |
| 20260906023044 | 74 | 134 | 0.0 | 1.0 | 0.00 | 0.00 | 0.00 | 85 | 1016.6 |
| 20260906022539 | 74 | 94 | 0.0 | 1.0 | 0.00 | 0.00 | 0.00 | 84 | 1016.7 |
| 20260906022040 | 74 | 94 | 0.0 | 1.0 | 0.00 | 0.00 | 0.00 | 84 | 1016.7 |
| 20260906021539 | 74 | 94 | 0.0 | 1.0 | 0.00 | 0.00 | 0.00 | 84 | 1016.6 |
| 20260906021039 | 74 | 105 | 0.0 | 1.0 | 0.00 | 0.00 | 0.00 | 84 | 1016.6 |
| 20260906020539 | 73 | 94 | 0.0 | 1.0 | 0.00 | 0.00 | 0.00 | 84 | 1016.5 |
| 20260906020039 | 73 | 136 | 0.0 | 1.0 | 0.00 | 0.00 | 0.00 | 84 | 1016.4 |
| 20260906015538 | 73 | 155 | 0.0 | 0.0 | 0.00 | 0.00 | 0.00 | 84 | 1016.2 |
| 20260906015039 | 73 | 156 | 0.0 | 1.0 | 0.00 | 0.00 | 0.00 | 83 | 1016.2 |
| 20260906014539 | 74 | 158 | 0.0 | 3.0 | 0.00 | 0.00 | 0.00 | 83 | 1016.0 |
| 20260906014043 | 74 | 280 | 0.0 | 2.0 | 0.00 | 0.00 | 0.00 | 82 | 1015.7 |
| 20260906013539 | 74 | 242 | 0.0 | 0.0 | 0.00 | 0.00 | 0.00 | 80 | 1015.6 |
| 20260906013038 | 75 | 243 | 0.0 | 0.0 | 0.00 | 0.00 | 0.00 | 80 | 1015.4 |
| 20260906012538 | 75 | 102 | 0.0 | 0.0 | 0.00 | 0.00 | 0.00 | 79 | 1015.2 |
| 20260906011039 | 76 | 100 | 0.0 | 2.0 | 0.00 | 0.00 | 0.00 | 78 | 1014.6 |
| 20260906010535 | 76 | 117 | 0.0 | 3.0 | 0.00 | 0.00 | 0.00 | 77 | 1014.6 |
| 20260906010046 | 77 | 109 | 0.0 | 3.0 | 0.00 | 0.00 | 0.00 | 77 | 1014.4 |
| 20260906005535 | 77 | 84 | 0.0 | 1.0 | 0.00 | 0.00 | 0.00 | 76 | 1014.3 |
| 20260906005034 | 77 | 108 | 0.0 | 1.0 | 0.00 | 0.00 | 0.00 | 76 | 1014.3 |
| 20260906004535 | 78 | 86 | 0.0 | 2.0 | 0.00 | 0.00 | 0.00 | 75 | 1014.2 |
| 20260906004033 | 78 | 115 | 0.0 | 2.0 | 0.00 | 0.00 | 0.00 | 74 | 1014.2 |
| 20260906003533 | 79 | 115 | 0.0 | 2.0 | 0.00 | 0.00 | 0.00 | 73 | 1014.1 |
| 20260906003033 | 79 | 100 | 0.0 | 3.0 | 0.00 | 0.00 | 0.00 | 72 | 1014.2 |
| 20260906002532 | 80 | 122 | 0.0 | 3.0 | 0.00 | 0.00 | 0.00 | 70 | 1014.1 |
| 20260906002033 | 81 | 117 | 0.0 | 3.0 | 0.00 | 0.00 | 0.00 | 69 | 1014.2 |
| 20260906001536 | 82 | 108 | 0.0 | 2.0 | 0.00 | 0.00 | 0.00 | 68 | 1014.2 |
| 20260906000030 | 82 | 72 | 0.0 | 3.0 | 0.00 | 0.00 | 0.00 | 70 | 1014.2 |
| 20260905235529 | 82 | 74 | 0.0 | 4.0 | 0.00 | 0.00 | 0.00 | 70 | 1014.1 |
| 20260905235031 | 82 | 103 | 0.0 | 4.0 | 0.00 | 0.00 | 0.00 | 70 | 1014.0 |
| 20260905234529 | 81 | 90 | 0.0 | 4.0 | 0.00 | 0.00 | 0.00 | 71 | 1014.0 |